Find Starlink 37633

NORAD ID: 69133 Int'l Des: 2026-110 Owner: SPXS Country: US Constellation: starlink operational
LEOCIRCULARRETROGRADE

当前视图

正在加载3D地球...

About Starlink 37633

Starlink 37633 (NORAD 69133) is a starlink constellation satellite (v2 mini) launched May 20, 2026 by SPXS of US. It operates in LEO, CIRCULAR, RETROGRADE orbit with a mass of 575.00 kg.

即将过境

Passes for default location (London). Set your location on the main map for personalized predictions.

高度历史

Loading altitude history...

两行轨道根数

1 69133U 26110K 26235.82158616 .00016603 00000-0 51522-3 0 9991
2 69133 97.2862 71.2592 0002659 87.1607 272.9940 15.33458387 15977
Epoch: Aug 23, 2026 • Age: 15 hours

当前状态

高度 483.5 km
远地点 / 近地点 N/A
速度 7.62 km/s
星下点 -43.28°S, 110.51°E
发射日期 May 20, 2026
运行时间 0.2 years
类型 internet

技术详情

分类 Payload
质量 575.00 kg
干质量 530.00 kg
总质量 575.00 kg
长度 0.30 m
直径 4.10 m
跨度 29.00 m
形状 Box + pan
制造商 SPXS
平台类型 Starlink V2MO
阶段状态 In Orbit
所有者/国家 SPXS/US

Most Searched